TAM3811 SBBE-SBMQ

Flight info

Callsign TAM3811
Flight time 0h 38m
Altitude 24000
Route PUDMI DCT MCP
Aircraft A320/M-SDE3FGHIRWY/LB1

Departure

Time 2026-04-27 18:44
Airport Val de Cans/Júlio Cezar Ribeiro International Airport (SBBE)

Arrival

Time 2026-04-27 19:22
Airport Macapá - Alberto Alcolumbre International Airport (SBMQ)
Time Latitude Longitude Altitude Speed Heading
2026-04-27 18:35 -1.38922 -48.47892 56 ft 0 kts 236°
2026-04-27 18:37 -1.38917 -48.47884 56 ft 2 kts 236°
2026-04-27 18:37 -1.38908 -48.47870 54 ft 2 kts 236°
2026-04-27 18:37 -1.38899 -48.47857 50 ft 2 kts 236°
2026-04-27 18:38 -1.38890 -48.47844 51 ft 2 kts 236°
2026-04-27 18:38 -1.38881 -48.47830 48 ft 2 kts 239°
2026-04-27 18:38 -1.38878 -48.47814 49 ft 2 kts 328°
2026-04-27 18:38 -1.38887 -48.47812 51 ft 0 kts
2026-04-27 18:40 -1.38880 -48.47811 52 ft 3 kts
2026-04-27 18:41 -1.38846 -48.47808 56 ft 7 kts
2026-04-27 18:41 -1.38785 -48.47803 56 ft 11 kts
2026-04-27 18:41 -1.38698 -48.47797 55 ft 14 kts 353°
2026-04-27 18:41 -1.38669 -48.47890 52 ft 17 kts 268°
2026-04-27 18:42 -1.38674 -48.48020 51 ft 21 kts 268°
2026-04-27 18:42 -1.38676 -48.48113 49 ft 19 kts 270°
2026-04-27 18:42 -1.38693 -48.48245 45 ft 10 kts 217°
2026-04-27 18:42 -1.38751 -48.48297 46 ft 13 kts 224°
2026-04-27 18:43 -1.38811 -48.48371 46 ft 15 kts 249°
2026-04-27 18:43 -1.38801 -48.48472 44 ft 11 kts 311°
2026-04-27 18:43 -1.38763 -48.48458 43 ft 0 kts 45°
2026-04-27 18:43 -1.38761 -48.48455 43 ft 2 kts 45°
2026-04-27 18:44 -1.38624 -48.48316 45 ft 64 kts 45°
2026-04-27 18:44 -1.38158 -48.47848 49 ft 125 kts 45°
2026-04-27 18:44 -1.37461 -48.47145 269 ft 150 kts 46°
2026-04-27 18:44 -1.36715 -48.46367 821 ft 158 kts 45°
2026-04-27 18:45 -1.35937 -48.45590 1379 ft 161 kts 37°
2026-04-27 18:45 -1.34825 -48.45250 1652 ft 183 kts 355°
2026-04-27 18:45 -1.33606 -48.45780 1905 ft 208 kts 317°
2026-04-27 18:45 -1.32552 -48.46903 2255 ft 233 kts 313°
2026-04-27 18:46 -1.31416 -48.48148 2689 ft 257 kts 314°
2026-04-27 18:46 -1.30179 -48.49501 3502 ft 268 kts 313°
2026-04-27 18:46 -1.28905 -48.50889 4432 ft 273 kts 313°
2026-04-27 18:46 -1.27608 -48.52296 5316 ft 278 kts 314°
2026-04-27 18:47 -1.26338 -48.53779 6177 ft 283 kts 305°
2026-04-27 18:47 -1.25289 -48.55463 7014 ft 287 kts 302°
2026-04-27 18:47 -1.24237 -48.57177 7839 ft 291 kts 302°
2026-04-27 18:47 -1.23181 -48.58890 8652 ft 295 kts 302°
2026-04-27 18:48 -1.22097 -48.60647 9463 ft 299 kts 302°
2026-04-27 18:48 -1.20999 -48.62428 10165 ft 306 kts 302°
2026-04-27 18:48 -1.19837 -48.64307 10384 ft 329 kts 302°
2026-04-27 18:48 -1.18603 -48.66303 10828 ft 341 kts 302°
2026-04-27 18:49 -1.17346 -48.68337 11456 ft 346 kts 302°
2026-04-27 18:49 -1.16074 -48.70395 12100 ft 350 kts 302°
2026-04-27 18:49 -1.14804 -48.72452 12741 ft 354 kts 302°
2026-04-27 18:49 -1.13502 -48.74564 13386 ft 358 kts 302°
2026-04-27 18:50 -1.12188 -48.76699 13975 ft 362 kts 302°
2026-04-27 18:50 -1.10861 -48.78857 14544 ft 366 kts 302°
2026-04-27 18:50 -1.09517 -48.81035 15106 ft 369 kts 302°
2026-04-27 18:50 -1.08163 -48.83228 15653 ft 373 kts 302°
2026-04-27 18:51 -1.06793 -48.85445 16206 ft 376 kts 302°
2026-04-27 18:51 -1.05404 -48.87687 16754 ft 380 kts 302°
2026-04-27 18:51 -1.04023 -48.89916 17292 ft 384 kts 302°
2026-04-27 18:51 -1.02611 -48.92192 17854 ft 387 kts 302°
2026-04-27 18:52 -1.01180 -48.94501 18366 ft 391 kts 302°
2026-04-27 18:52 -0.99747 -48.96821 18873 ft 394 kts 302°
2026-04-27 18:52 -0.98301 -48.99165 19413 ft 397 kts 302°
2026-04-27 18:53 -0.95401 -49.03878 20376 ft 403 kts 302°
2026-04-27 18:53 -0.93927 -49.06276 20862 ft 406 kts 302°
2026-04-27 18:53 -0.92436 -49.08695 21352 ft 409 kts 302°
2026-04-27 18:53 -0.90936 -49.11124 21831 ft 412 kts 302°
2026-04-27 18:54 -0.89420 -49.13577 22313 ft 415 kts 302°
2026-04-27 18:54 -0.87892 -49.16045 22796 ft 418 kts 302°
2026-04-27 18:54 -0.86377 -49.18496 23267 ft 421 kts 302°
2026-04-27 18:54 -0.84833 -49.21001 23689 ft 425 kts 302°
2026-04-27 18:55 -0.83275 -49.23531 23874 ft 426 kts 302°
2026-04-27 18:55 -0.81727 -49.26036 23924 ft 416 kts 303°
2026-04-27 18:55 -0.80226 -49.28465 23933 ft 407 kts 303°
2026-04-27 18:55 -0.78747 -49.30865 23934 ft 404 kts 302°
2026-04-27 18:56 -0.77777 -49.32453 23934 ft 404 kts 302°
2026-04-27 18:56 -0.75842 -49.35645 23934 ft 404 kts 302°
2026-04-27 18:56 -0.74392 -49.38048 23934 ft 404 kts 302°
2026-04-27 18:56 -0.73412 -49.39676 23934 ft 404 kts 302°
2026-04-27 18:57 -0.71982 -49.42051 23934 ft 404 kts 302°
2026-04-27 18:57 -0.70528 -49.44456 23931 ft 404 kts 302°
2026-04-27 18:57 -0.69072 -49.46859 23934 ft 404 kts 302°
2026-04-27 18:57 -0.67612 -49.49266 23936 ft 404 kts 302°
2026-04-27 18:58 -0.66154 -49.51669 23940 ft 404 kts 302°
2026-04-27 18:58 -0.64696 -49.54071 23943 ft 404 kts 302°
2026-04-27 18:58 -0.63233 -49.56480 23945 ft 405 kts 302°
2026-04-27 18:58 -0.61774 -49.58888 23948 ft 405 kts 302°
2026-04-27 18:59 -0.60315 -49.61296 23950 ft 405 kts 302°
2026-04-27 18:59 -0.58874 -49.63678 23952 ft 405 kts 302°
2026-04-27 18:59 -0.57412 -49.66090 23950 ft 405 kts 302°
2026-04-27 18:59 -0.55950 -49.68499 23949 ft 406 kts 302°
2026-04-27 19:00 -0.54485 -49.70913 23954 ft 406 kts 302°
2026-04-27 19:00 -0.53018 -49.73332 23955 ft 406 kts 302°
2026-04-27 19:00 -0.51557 -49.75746 23955 ft 406 kts 302°
2026-04-27 19:00 -0.50092 -49.78173 23957 ft 406 kts 302°
2026-04-27 19:01 -0.48625 -49.80597 23958 ft 407 kts 302°
2026-04-27 19:01 -0.47174 -49.82990 23958 ft 407 kts 302°
2026-04-27 19:01 -0.45708 -49.85407 23959 ft 407 kts 302°
2026-04-27 19:01 -0.44338 -49.87878 23960 ft 407 kts 295°
2026-04-27 19:02 -0.43244 -49.90494 23961 ft 408 kts 293°
2026-04-27 19:02 -0.42157 -49.93118 23959 ft 408 kts 293°
2026-04-27 19:02 -0.41068 -49.95742 23958 ft 408 kts 293°
2026-04-27 19:02 -0.39995 -49.98326 23957 ft 408 kts 293°
2026-04-27 19:03 -0.38907 -50.00948 23955 ft 408 kts 293°
2026-04-27 19:03 -0.37819 -50.03566 23958 ft 408 kts 293°
2026-04-27 19:03 -0.36735 -50.06171 23798 ft 402 kts 293°
2026-04-27 19:03 -0.36015 -50.07904 23648 ft 397 kts 293°
2026-04-27 19:04 -0.34635 -50.11239 23326 ft 387 kts 293°
2026-04-27 19:04 -0.33612 -50.13715 22902 ft 384 kts 293°
2026-04-27 19:04 -0.32592 -50.16173 22449 ft 383 kts 293°
2026-04-27 19:04 -0.31574 -50.18631 21997 ft 381 kts 293°
2026-04-27 19:05 -0.30560 -50.21074 21543 ft 380 kts 293°
2026-04-27 19:05 -0.29561 -50.23487 21101 ft 379 kts 293°
2026-04-27 19:05 -0.28554 -50.25917 20649 ft 379 kts 293°
2026-04-27 19:05 -0.27545 -50.28345 20198 ft 378 kts 293°
2026-04-27 19:06 -0.26536 -50.30769 19746 ft 377 kts 293°
2026-04-27 19:06 -0.25526 -50.33188 19285 ft 376 kts 293°
2026-04-27 19:06 -0.24518 -50.35602 18843 ft 376 kts 293°
2026-04-27 19:06 -0.23514 -50.38016 18390 ft 375 kts 292°
2026-04-27 19:07 -0.22515 -50.40432 17895 ft 375 kts 292°
2026-04-27 19:07 -0.21528 -50.42825 17488 ft 371 kts 292°
2026-04-27 19:07 -0.20543 -50.45210 17049 ft 368 kts 292°
2026-04-27 19:07 -0.19567 -50.47570 16585 ft 366 kts 292°
2026-04-27 19:08 -0.18613 -50.49876 16153 ft 364 kts 293°
2026-04-27 19:08 -0.17650 -50.52201 15764 ft 360 kts 293°
2026-04-27 19:08 -0.16693 -50.54507 15387 ft 356 kts 293°
2026-04-27 19:08 -0.15744 -50.56798 14925 ft 355 kts 293°
2026-04-27 19:09 -0.14805 -50.59064 14594 ft 350 kts 293°
2026-04-27 19:09 -0.13873 -50.61308 14177 ft 349 kts 293°
2026-04-27 19:09 -0.12945 -50.63542 13793 ft 347 kts 293°
2026-04-27 19:09 -0.12027 -50.65757 13359 ft 343 kts 293°
2026-04-27 19:10 -0.11124 -50.67935 12705 ft 335 kts 293°
2026-04-27 19:10 -0.10250 -50.70044 12294 ft 322 kts 294°
2026-04-27 19:10 -0.09411 -50.72068 11914 ft 309 kts 294°
2026-04-27 19:10 -0.08872 -50.73365 11668 ft 302 kts 294°
2026-04-27 19:11 -0.07820 -50.75897 11190 ft 288 kts 294°
2026-04-27 19:11 -0.07060 -50.77723 10838 ft 284 kts 294°
2026-04-27 19:11 -0.06304 -50.79541 10487 ft 282 kts 294°
2026-04-27 19:11 -0.05554 -50.81348 10144 ft 281 kts 294°
2026-04-27 19:12 -0.04805 -50.83155 9798 ft 283 kts 294°
2026-04-27 19:12 -0.04050 -50.84975 9422 ft 284 kts 294°
2026-04-27 19:12 -0.03292 -50.86801 9063 ft 285 kts 294°
2026-04-27 19:12 -0.02531 -50.88631 8714 ft 285 kts 294°
2026-04-27 19:13 -0.01774 -50.90452 8430 ft 283 kts 294°
2026-04-27 19:13 -0.01019 -50.92265 8097 ft 283 kts 294°
2026-04-27 19:13 -0.00263 -50.94082 7739 ft 284 kts 294°
2026-04-27 19:13 0.00484 -50.95910 7372 ft 285 kts 290°
2026-04-27 19:14 0.00728 -50.97868 7038 ft 287 kts 263°
2026-04-27 19:14 0.00153 -50.99754 6851 ft 282 kts 248°
2026-04-27 19:14 -0.00625 -51.01540 6642 ft 279 kts 246°
2026-04-27 19:14 -0.01419 -51.03293 6385 ft 276 kts 246°
2026-04-27 19:15 -0.02215 -51.05027 6115 ft 273 kts 246°
2026-04-27 19:15 -0.03006 -51.06746 5839 ft 271 kts 246°
2026-04-27 19:15 -0.03798 -51.08450 5571 ft 269 kts 246°
2026-04-27 19:15 -0.04582 -51.10139 5301 ft 267 kts 246°
2026-04-27 19:16 -0.05361 -51.11811 5027 ft 264 kts 245°
2026-04-27 19:16 -0.05895 -51.12903 4753 ft 264 kts 245°
2026-04-27 19:16 -0.07133 -51.14992 4092 ft 258 kts 241°
2026-04-27 19:16 -0.07990 -51.16551 3608 ft 255 kts 243°
2026-04-27 19:17 -0.08803 -51.18114 3128 ft 251 kts 246°
2026-04-27 19:17 -0.09108 -51.19757 2818 ft 238 kts 282°
2026-04-27 19:17 -0.08354 -51.21150 2532 ft 225 kts 324°
2026-04-27 19:17 -0.06983 -51.21643 2275 ft 204 kts
2026-04-27 19:18 -0.05715 -51.21175 2071 ft 192 kts 30°
2026-04-27 19:18 -0.04602 -51.20560 1916 ft 175 kts 30°
2026-04-27 19:18 -0.03599 -51.19988 1833 ft 153 kts 34°
2026-04-27 19:18 -0.02813 -51.19353 1786 ft 140 kts 46°
2026-04-27 19:19 -0.02236 -51.18587 1771 ft 139 kts 58°
2026-04-27 19:19 -0.01732 -51.17773 1748 ft 138 kts 57°
2026-04-27 19:19 -0.01213 -51.16959 1719 ft 139 kts 57°
2026-04-27 19:19 -0.00696 -51.16153 1685 ft 138 kts 56°
2026-04-27 19:20 -0.00175 -51.15344 1660 ft 138 kts 58°
2026-04-27 19:20 0.00345 -51.14538 1579 ft 140 kts 57°
2026-04-27 19:20 0.00866 -51.13731 1393 ft 139 kts 57°
2026-04-27 19:20 0.01382 -51.12929 1227 ft 136 kts 57°
2026-04-27 19:21 0.01895 -51.12134 1047 ft 136 kts 58°
2026-04-27 19:21 0.02404 -51.11345 880 ft 135 kts 57°
2026-04-27 19:21 0.02905 -51.10546 695 ft 135 kts 58°
2026-04-27 19:21 0.03391 -51.09758 561 ft 139 kts 57°
2026-04-27 19:22 0.03930 -51.08957 335 ft 139 kts 53°
2026-04-27 19:22 0.04464 -51.08144 148 ft 140 kts 56°
2026-04-27 19:22 0.04954 -51.07384 60 ft 102 kts 57°
2026-04-27 19:22 0.05175 -51.07043 65 ft 17 kts 57°
2026-04-27 19:23 0.05241 -51.06940 60 ft 16 kts 57°
2026-04-27 19:23 0.05300 -51.06851 58 ft 14 kts 57°
2026-04-27 19:23 0.05345 -51.06768 64 ft 13 kts 72°
2026-04-27 19:23 0.05365 -51.06755 59 ft 2 kts 240°
2026-04-27 19:24 0.05348 -51.06779 64 ft 6 kts 233°
2026-04-27 19:24 0.05316 -51.06829 64 ft 11 kts 238°
2026-04-27 19:24 0.05269 -51.06896 66 ft 13 kts 236°
2026-04-27 19:24 0.05242 -51.06917 64 ft 4 kts 183°
2026-04-27 19:25 0.05207 -51.06902 63 ft 8 kts 150°
2026-04-27 19:25 0.05142 -51.06861 59 ft 14 kts 146°
2026-04-27 19:25 0.05104 -51.06809 58 ft 8 kts 79°
2026-04-27 19:25 0.05080 -51.06764 63 ft 9 kts 149°
2026-04-27 19:26 0.05066 -51.06755 57 ft 0 kts 147°